Wind_Speed
25 26 26 26 27 27 26 24 23 23 22 23 23 22 22 23 23 23 22 21 20 21 20 19 19 18 18 18 17 17 17 16 15 15 14 13 13 12 12 12 12 12 11 11 10 10 9 9 8
27 27 28 29 29 28 27 26 24 24 25 25 25 25 25 25 24 24 23 23 22 22 22 21 21 20 20 19 19 19 18 18 17 16 15 15 14 14 13 13 13 13 12 12 11 11 11 10 10
28 29 29 30 29 29 29 27 26 27 27 27 26 27 27 27 26 26 26 25 25 25 24 23 23 22 21 21 20 20 19 19 18 18 17 17 16 16 15 15 14 14 13 13 13 12 12 12 11
30 31 31 32 30 29 30 29 30 30 30 29 29 29 29 28 28 28 28 28 27 26 26 25 24 24 23 23 22 21 21 20 20 19 19 18 18 17 17 16 15 15 14 14 14 13 13 13 12
32 33 33 33 31 30 31 32 32 33 33 32 32 31 31 30 30 30 30 30 30 29 27 26 26 25 25 25 24 23 23 22 21 21 20 20 20 19 18 18 17 17 16 16 15 15 15 14 14
33 34 34 33 32 32 32 33 34 35 35 34 34 34 33 32 32 32 32 31 31 30 29 28 27 27 27 26 26 25 24 24 23 22 22 22 21 21 20 19 19 19 18 18 17 17 16 16 15
35 35 35 34 34 34 33 35 36 36 36 36 36 36 35 34 34 34 34 33 33 32 31 30 30 29 29 28 28 27 27 26 25 24 23 23 23 22 21 21 20 20 20 19 19 18 18 17 16
37 38 37 36 35 35 35 36 37 37 37 37 39 38 37 36 36 35 35 35 34 34 33 32 32 32 31 30 30 29 28 28 27 26 25 25 24 24 23 22 21 21 21 21 20 19 18 18 18
38 40 38 36 37 36 36 38 37 37 38 38 39 39 39 38 38 38 37 37 36 35 35 35 34 34 33 32 31 31 30 30 29 28 27 27 26 26 25 24 23 23 22 22 22 21 21 19 19
40 41 39 38 38 39 38 38 38 38 38 39 40 40 40 40 39 39 39 39 38 37 37 37 36 35 35 34 33 33 32 31 31 30 29 29 28 28 27 26 26 25 24 23 22 22 22 21 20
41 41 40 40 40 41 40 40 40 40 39 40 41 41 41 41 41 41 41 41 41 40 39 39 38 37 36 35 35 35 34 33 33 32 32 31 30 30 29 28 27 27 26 25 24 23 23 22 22
41 41 41 40 41 42 42 42 42 42 41 40 42 43 43 43 43 42 42 42 42 42 41 41 40 39 38 37 37 37 36 35 35 34 34 33 32 32 31 30 29 29 28 27 26 25 24 24 24
41 41 42 42 42 43 43 43 43 43 42 41 42 43 44 44 43 43 44 44 44 43 43 42 41 41 40 39 39 38 38 37 37 36 35 35 34 33 32 31 30 30 30 29 29 28 27 26 25
42 42 42 42 42 43 44 44 44 43 43 42 42 43 44 44 44 44 44 45 44 44 43 43 42 42 41 41 40 40 40 40 39 38 37 37 35 35 34 33 34 33 32 31 31 30 29 29 28
41 42 43 42 43 44 45 45 44 43 44 43 42 42 44 44 44 44 44 44 45 45 45 44 43 43 43 42 42 42 42 41 41 40 39 38 38 37 37 36 36 36 35 34 33 33 32 31 31
41 42 43 42 43 44 46 46 43 44 44 44 43 42 43 43 43 44 45 45 45 45 45 45 45 45 44 44 43 43 43 42 42 41 41 40 39 39 38 38 38 37 37 35 35 35 34 33 33
41 42 43 43 43 44 46 46 44 44 44 44 43 43 43 43 43 44 45 45 45 45 45 45 45 45 45 45 44 45 44 43 43 43 43 42 42 41 41 40 39 39 38 38 37 36 36 36 35
40 41 42 43 42 44 46 46 44 45 45 45 44 45 45 44 44 44 45 45 46 45 45 45 45 45 46 46 45 46 46 44 44 44 43 43 43 43 43 42 41 41 41 41 39 39 38 38 38
40 41 42 42 42 45 46 46 45 46 46 46 46 46 46 45 45 45 46 46 46 46 46 46 45 46 46 46 47 46 46 46 45 45 45 44 44 44 44 43 43 42 42 41 41 40 40 40 40
38 39 40 40 41 43 45 46 45 45 45 46 46 46 47 46 46 46 46 47 47 48 48 47 47 47 47 47 48 48 48 48 48 47 47 46 45 44 44 45 45 44 43 42 42 42 42 42 41
39 40 40 40 41 43 45 46 45 45 45 46 46 47 47 47 46 46 46 47 48 48 49 49 49 48 48 48 49 49 49 49 49 48 47 48 47 46 45 46 46 46 45 44 43 44 44 44 43
38 39 40 40 41 43 43 46 44 44 45 45 45 46 47 47 47 47 47 47 48 48 49 50 50 50 49 49 49 50 49 49 49 49 49 49 49 48 47 48 47 46 46 45 45 45 46 46 45
36 38 38 39 41 42 42 45 43 42 43 43 44 45 46 47 47 47 47 47 48 49 50 50 50 50 50 50 49 50 51 51 52 52 51 50 49 48 49 49 48 48 48 47 47 47 47 47 47
35 36 38 38 39 41 40 42 44 42 42 42 43 43 44 45 46 46 46 47 48 49 49 50 51 51 51 51 51 51 51 52 52 52 52 51 52 51 51 50 49 50 50 49 48 49 48 47 48
34 34 35 37 38 40 39 41 42 41 41 42 42 42 43 44 44 45 46 47 48 48 49 50 51 51 52 52 52 52 52 52 52 52 51 51 52 53 53 52 50 49 50 51 50 50 50 49 49
32 33 34 36 38 39 39 40 40 39 39 39 40 41 42 42 43 44 45 46 47 48 49 49 51 51 51 52 52 52 53 53 53 53 52 51 52 53 53 54 53 51 50 51 52 52 52 51 51
31 32 33 35 36 36 38 39 39 37 36 37 38 39 41 41 42 43 44 45 46 47 48 48 49 50 51 51 52 53 54 54 54 54 54 53 53 54 54 54 54 54 53 52 52 52 53 53 53
30 30 31 31 33 32 33 34 35 33 34 35 36 37 39 41 42 42 43 44 45 47 48 48 49 50 50 51 52 52 53 53 54 54 54 53 55 55 55 54 54 54 55 54 53 53 53 53 53
28 28 29 30 31 33 33 32 31 32 33 34 34 35 36 38 39 40 41 42 44 46 47 48 48 49 50 50 51 52 52 52 53 54 53 53 54 54 55 55 55 55 54 54 55 54 53 54 53
28 27 28 29 30 32 34 33 30 31 32 33 33 34 35 36 37 39 40 41 42 44 46 47 48 47 48 49 50 51 51 52 53 53 53 53 54 54 54 54 55 55 55 54 54 54 54 53 53
Wind_Direction
251 250 251 251 251 253 254 254 252 251 250 251 252 253 253 252 253 254 253 251 249 249 248 248 248 247 247 247 247 249 251 251 251 251 249 248 248 249 248 249 244 242 241 240 240 239 237 236 237
251 251 251 251 252 254 254 253 252 252 250 250 252 253 253 252 252 253 252 251 249 249 249 249 248 248 248 248 249 249 250 252 251 250 248 246 247 247 248 249 247 243 242 241 239 240 239 239 241
252 252 252 253 254 255 255 255 254 252 250 250 250 252 253 253 253 253 251 250 249 248 249 248 248 249 249 249 250 250 250 251 251 250 249 247 246 246 246 248 248 244 242 243 242 240 242 243 244
253 253 254 255 256 256 257 256 255 254 252 251 250 250 251 251 252 253 252 250 250 249 249 248 247 248 249 249 249 250 251 251 251 250 248 247 246 246 245 246 246 244 243 242 242 242 243 245 246
255 254 255 256 257 257 257 256 255 256 256 253 252 251 250 249 250 251 251 251 250 249 249 249 247 247 247 248 248 249 251 251 250 248 247 247 247 245 244 245 244 244 243 242 242 242 244 247 249
256 256 256 257 258 258 257 257 256 256 256 255 254 252 250 249 249 250 250 251 251 250 249 249 248 247 246 247 248 248 249 249 248 247 247 247 246 245 244 244 244 244 244 244 244 243 245 246 249
259 258 259 259 259 259 259 259 257 256 256 256 255 253 252 250 250 250 250 251 251 251 250 250 249 248 247 247 248 248 247 247 247 247 247 246 245 245 244 244 244 244 244 244 246 246 244 245 248
262 261 260 259 260 260 259 259 258 257 255 255 255 254 253 252 251 251 251 251 251 251 251 251 250 249 248 248 247 248 247 247 247 246 246 246 245 245 244 244 244 244 244 244 246 247 245 245 246
263 262 262 261 261 260 259 258 259 258 256 255 255 254 252 252 251 251 251 251 251 251 251 251 251 250 249 248 248 248 247 247 247 246 245 245 244 245 245 245 244 245 245 245 245 246 246 247 246
263 263 263 263 262 260 259 259 259 259 258 257 256 255 253 251 251 251 251 251 251 251 251 251 251 251 250 248 248 248 247 247 247 246 246 245 244 245 245 245 245 244 245 245 246 247 247 248 247
264 264 264 263 261 260 260 260 260 260 260 258 257 256 254 251 251 251 251 252 252 251 251 251 250 250 250 250 248 247 247 247 247 246 247 246 245 244 245 245 245 245 246 246 247 247 248 248 248
265 263 262 262 261 260 260 260 260 261 261 259 258 257 254 252 251 251 251 251 251 251 251 250 250 250 250 249 249 247 246 246 247 246 246 246 246 246 245 244 246 246 246 248 248 248 247 249 249
265 263 262 261 260 260 260 260 261 261 260 259 258 257 254 252 252 251 251 250 250 250 250 249 249 249 249 248 248 248 247 246 246 247 246 246 246 245 244 244 246 247 247 248 249 249 249 250 251
266 264 262 261 261 261 261 261 261 261 260 259 259 258 255 253 253 252 251 251 249 248 248 249 249 248 248 248 248 247 247 246 246 246 246 246 245 245 245 246 246 248 248 249 250 250 251 252 252
266 264 261 261 261 261 261 260 261 261 259 259 258 258 256 254 253 253 252 251 249 248 248 248 248 248 247 247 247 246 246 246 246 246 246 246 246 246 246 247 247 248 249 250 251 250 251 253 253
267 264 262 261 262 262 262 261 261 260 259 259 259 258 256 254 254 253 252 251 249 248 248 248 248 248 248 247 247 247 247 246 245 246 246 246 246 247 247 248 248 248 249 249 251 251 252 252 253
268 266 265 264 263 263 262 263 261 260 259 258 259 258 255 254 254 253 251 251 250 249 248 248 248 248 248 247 247 246 247 246 245 245 246 246 247 247 247 248 248 248 249 250 250 251 251 252 253
270 269 267 266 265 264 263 262 260 259 259 258 258 258 256 255 254 253 252 251 250 249 249 248 248 247 247 247 246 246 247 247 246 245 245 247 247 248 248 248 249 249 251 251 250 250 252 252 253
270 269 268 268 267 266 264 262 261 260 259 259 259 258 257 256 255 254 253 251 249 248 248 248 248 248 248 248 247 247 247 247 246 244 245 247 247 247 248 248 249 250 251 251 251 251 251 252 253
269 269 269 267 266 266 265 263 261 260 259 259 258 257 257 256 256 255 253 251 249 249 248 248 248 249 249 248 248 247 247 246 245 243 243 245 246 247 248 248 249 249 250 251 252 251 251 252 253
270 270 269 268 267 266 267 264 262 261 261 260 259 258 257 255 255 254 252 251 250 249 248 247 248 248 248 248 248 248 247 246 245 244 244 244 245 247 249 249 249 249 250 251 251 251 251 251 252
272 271 271 268 267 267 267 268 262 262 261 261 259 258 256 255 254 252 252 251 250 249 248 248 247 247 248 248 248 248 248 247 246 246 245 245 246 248 250 251 250 249 250 250 252 252 251 251 251
276 273 272 270 269 268 267 268 265 263 262 261 260 259 257 256 254 252 251 250 250 249 249 248 248 247 247 248 249 249 248 247 246 246 247 247 247 248 249 250 250 250 250 250 252 252 252 251 251
277 276 273 271 271 270 269 269 268 265 265 263 261 260 258 257 255 252 251 250 249 249 248 248 248 248 247 247 249 250 248 247 246 246 248 248 248 248 248 250 252 251 251 251 252 253 253 252 252
278 278 277 274 272 271 271 270 270 268 267 265 262 259 258 257 255 253 252 251 250 249 248 248 248 248 248 248 249 249 249 248 247 247 248 249 249 249 250 251 253 253 253 253 252 253 254 254 254
282 279 277 277 274 272 271 271 271 270 268 266 263 260 258 257 256 255 253 251 250 249 248 247 248 248 249 248 249 249 249 248 247 247 248 249 249 250 252 252 253 254 254 254 253 253 254 255 255
285 281 279 277 277 277 274 273 272 271 269 266 264 262 259 257 257 256 254 253 251 249 248 247 248 248 248 249 249 250 250 248 247 248 249 249 250 251 252 253 253 254 255 255 255 254 255 255 255
286 284 282 279 278 280 279 275 273 270 271 268 265 264 262 260 258 257 255 253 252 250 249 248 248 248 249 249 249 249 249 248 248 249 250 249 250 251 252 253 254 254 255 255 255 255 256 256 255
287 283 281 279 277 277 281 279 277 273 272 269 267 266 264 261 259 257 255 254 253 252 251 251 250 249 249 249 248 247 247 248 249 249 249 249 250 251 251 252 254 254 255 255 256 256 256 256 255
288 285 284 281 281 279 278 279 277 276 274 272 270 268 266 264 261 258 256 255 254 252 251 252 252 251 249 249 248 246 248 249 248 248 249 249 250 251 252 252 253 255 255 255 255 255 256 256 256
Height
5797 5797 5799 5800 5801 5802 5803 5806 5808 5810 5811 5812 5813 5814 5816 5817 5819 5822 5822 5822 5824 5825 5826 5828 5829 5830 5831 5832 5833 5834 5835 5836 5837 5838 5839 5840 5841 5842 5843 5844 5844 5845 5846 5847 5848 5849 5850 5850 5851
5791 5792 5794 5795 5795 5797 5799 5802 5803 5805 5806 5807 5809 5810 5811 5812 5815 5816 5817 5818 5820 5821 5823 5824 5826 5827 5828 5829 5830 5831 5832 5834 5835 5836 5837 5837 5838 5840 5841 5841 5842 5843 5844 5845 5846 5847 5848 5848 5849
5786 5787 5788 5789 5790 5792 5795 5797 5799 5799 5800 5802 5804 5805 5806 5808 5810 5811 5812 5814 5815 5817 5818 5820 5822 5823 5825 5826 5827 5828 5829 5830 5831 5833 5834 5835 5836 5837 5838 5839 5840 5841 5842 5843 5844 5845 5846 5847 5847
5780 5781 5782 5784 5785 5788 5789 5792 5792 5793 5794 5796 5798 5799 5801 5803 5804 5805 5807 5809 5811 5812 5814 5816 5817 5819 5820 5822 5823 5824 5826 5827 5828 5829 5831 5832 5833 5834 5835 5836 5837 5839 5840 5841 5842 5843 5844 5845 5845
5774 5775 5776 5777 5779 5782 5783 5784 5785 5786 5788 5790 5792 5793 5795 5796 5798 5799 5802 5804 5805 5808 5809 5811 5813 5814 5816 5817 5819 5820 5822 5823 5824 5825 5827 5828 5830 5831 5832 5833 5834 5836 5837 5838 5839 5840 5841 5842 5843
5768 5768 5769 5771 5774 5775 5776 5777 5778 5780 5781 5783 5785 5787 5789 5790 5792 5794 5796 5798 5800 5802 5804 5806 5808 5809 5811 5812 5814 5816 5817 5818 5820 5821 5823 5824 5826 5827 5828 5829 5831 5832 5834 5835 5836 5837 5838 5839 5840
5762 5761 5762 5764 5766 5768 5770 5770 5771 5772 5774 5776 5777 5780 5782 5784 5786 5787 5789 5791 5793 5796 5798 5800 5802 5804 5806 5807 5809 5811 5812 5814 5815 5817 5819 5820 5821 5823 5824 5826 5827 5829 5830 5832 5833 5834 5835 5836 5838
5753 5754 5755 5757 5758 5761 5762 5761 5762 5764 5766 5768 5769 5772 5774 5777 5779 5781 5782 5784 5787 5789 5792 5794 5796 5798 5800 5802 5803 5805 5807 5809 5810 5812 5814 5815 5817 5819 5820 5822 5823 5825 5826 5828 5829 5831 5832 5833 5834
5744 5746 5747 5750 5751 5752 5753 5753 5754 5755 5757 5759 5760 5762 5765 5768 5770 5773 5775 5777 5779 5782 5784 5787 5789 5791 5793 5795 5797 5799 5801 5803 5805 5807 5809 5810 5812 5814 5816 5817 5819 5821 5822 5824 5825 5827 5828 5830 5831
5736 5736 5740 5742 5742 5742 5743 5744 5745 5747 5749 5750 5751 5753 5756 5759 5762 5764 5767 5769 5771 5774 5776 5779 5781 5784 5786 5788 5791 5793 5795 5797 5799 5801 5803 5805 5807 5809 5811 5812 5814 5816 5818 5820 5821 5823 5824 5826 5827
5727 5728 5731 5731 5732 5732 5734 5735 5736 5737 5740 5741 5743 5744 5746 5749 5752 5755 5758 5760 5763 5765 5768 5770 5773 5775 5778 5780 5783 5786 5788 5790 5793 5795 5797 5799 5801 5803 5805 5807 5809 5811 5813 5815 5817 5818 5820 5821 5823
5717 5719 5720 5721 5722 5722 5724 5725 5727 5728 5731 5732 5733 5734 5736 5739 5742 5745 5748 5751 5754 5756 5759 5761 5763 5766 5769 5772 5775 5778 5781 5783 5785 5788 5790 5793 5795 5797 5799 5801 5803 5806 5808 5810 5812 5814 5815 5817 5818
5707 5709 5709 5710 5711 5712 5713 5715 5717 5719 5720 5721 5722 5724 5726 5729 5732 5735 5737 5740 5743 5746 5749 5751 5754 5757 5760 5763 5766 5770 5773 5775 5778 5780 5783 5786 5788 5791 5793 5795 5798 5800 5802 5804 5806 5808 5810 5812 5814
5698 5698 5699 5700 5701 5702 5703 5704 5706 5709 5709 5711 5712 5714 5716 5719 5721 5724 5727 5730 5733 5736 5739 5742 5745 5747 5750 5754 5757 5760 5764 5767 5769 5772 5775 5778 5781 5784 5786 5789 5791 5793 5796 5798 5800 5802 5804 5806 5808
5686 5686 5688 5689 5690 5691 5692 5693 5696 5698 5698 5701 5703 5704 5706 5708 5711 5713 5716 5719 5722 5725 5728 5731 5735 5737 5741 5744 5747 5750 5754 5757 5760 5764 5767 5770 5773 5776 5779 5781 5784 5786 5789 5791 5793 5796 5798 5800 5802
5675 5675 5676 5680 5680 5680 5681 5683 5687 5686 5687 5690 5692 5694 5696 5698 5700 5703 5705 5708 5711 5714 5718 5721 5724 5728 5731 5734 5737 5740 5744 5748 5751 5755 5758 5761 5765 5768 5771 5773 5776 5778 5781 5784 5786 5788 5791 5793 5795
5664 5665 5666 5669 5669 5668 5668 5671 5676 5675 5676 5679 5681 5683 5685 5687 5690 5692 5695 5697 5701 5704 5707 5711 5714 5717 5720 5724 5727 5730 5734 5738 5741 5745 5749 5752 5755 5759 5762 5765 5767 5770 5773 5775 5778 5780 5783 5785 5787
5655 5654 5655 5657 5657 5656 5656 5660 5663 5663 5665 5668 5670 5672 5674 5677 5679 5681 5684 5687 5690 5694 5697 5700 5703 5706 5710 5713 5716 5720 5724 5728 5732 5735 5739 5742 5746 5749 5752 5755 5758 5761 5764 5766 5769 5772 5775 5777 5779
5643 5643 5643 5645 5645 5644 5644 5647 5651 5651 5653 5656 5658 5659 5662 5665 5668 5670 5673 5676 5679 5682 5686 5689 5693 5696 5699 5702 5706 5709 5713 5717 5721 5725 5728 5732 5736 5739 5742 5746 5749 5752 5755 5757 5760 5763 5766 5768 5771
5632 5631 5632 5634 5633 5632 5632 5634 5638 5640 5641 5643 5645 5647 5649 5653 5656 5659 5662 5664 5668 5671 5674 5678 5681 5684 5688 5691 5695 5698 5702 5705 5710 5714 5718 5722 5725 5728 5732 5735 5739 5742 5744 5747 5750 5753 5756 5759 5761
5621 5621 5621 5622 5622 5621 5620 5622 5626 5627 5628 5630 5632 5634 5637 5640 5644 5646 5649 5652 5656 5659 5663 5666 5670 5673 5676 5679 5682 5686 5689 5693 5698 5702 5707 5711 5714 5718 5721 5725 5728 5731 5734 5737 5740 5743 5746 5749 5752
5611 5611 5610 5610 5610 5609 5609 5607 5615 5616 5617 5618 5620 5622 5624 5627 5631 5634 5637 5640 5643 5647 5650 5654 5657 5660 5663 5667 5670 5674 5678 5682 5687 5691 5695 5699 5702 5707 5710 5714 5717 5720 5723 5726 5729 5732 5736 5738 5741
5601 5600 5599 5599 5598 5598 5599 5596 5602 5605 5606 5607 5609 5610 5612 5615 5618 5621 5624 5627 5631 5634 5638 5641 5644 5647 5651 5655 5658 5662 5666 5670 5674 5678 5683 5687 5691 5695 5699 5702 5705 5708 5712 5715 5717 5721 5724 5727 5730
5591 5590 5589 5588 5587 5587 5590 5588 5589 5594 5595 5596 5598 5599 5601 5603 5606 5608 5612 5615 5618 5621 5625 5629 5632 5635 5638 5642 5646 5649 5653 5657 5661 5666 5671 5675 5679 5683 5687 5690 5694 5697 5700 5703 5706 5709 5712 5715 5718
5583 5582 5580 5578 5577 5577 5579 5577 5579 5583 5584 5585 5586 5588 5589 5591 5594 5596 5599 5603 5606 5609 5612 5616 5619 5622 5626 5630 5633 5637 5640 5645 5649 5654 5658 5662 5667 5671 5674 5678 5682 5685 5688 5691 5694 5697 5700 5703 5706
5573 5572 5572 5570 5568 5568 5569 5568 5570 5572 5573 5573 5574 5576 5578 5580 5582 5585 5587 5590 5593 5596 5599 5603 5606 5610 5613 5617 5621 5624 5628 5632 5637 5641 5645 5649 5654 5658 5661 5665 5669 5672 5675 5678 5681 5684 5687 5690 5693
5564 5563 5562 5561 5559 5558 5558 5560 5561 5562 5563 5563 5563 5565 5566 5568 5570 5573 5575 5578 5580 5583 5586 5590 5593 5597 5600 5604 5608 5611 5615 5619 5624 5629 5632 5636 5640 5644 5647 5652 5655 5659 5662 5665 5668 5671 5674 5677 5680
5557 5555 5554 5552 5551 5549 5549 5550 5551 5552 5552 5553 5553 5554 5555 5557 5558 5560 5562 5565 5567 5570 5573 5577 5581 5584 5588 5591 5595 5598 5602 5607 5611 5615 5619 5623 5627 5630 5634 5638 5641 5645 5648 5651 5654 5657 5660 5663 5666
5549 5548 5546 5544 5543 5542 5540 5543 5543 5543 5542 5542 5543 5543 5544 5545 5546 5548 5550 5553 5555 5558 5561 5564 5568 5571 5575 5578 5581 5585 5590 5594 5597 5601 5605 5609 5613 5617 5620 5624 5627 5630 5634 5637 5640 5643 5646 5649 5652
5541 5539 5538 5537 5535 5533 5531 5535 5535 5534 5533 5533 5534 5534 5534 5535 5536 5537 5538 5541 5543 5546 5548 5551 5555 5558 5561 5565 5568 5573 5576 5580 5584 5588 5591 5595 5599 5603 5606 5610 5613 5616 5620 5623 5626 5629 5632 5634 5638